SWR93 SBGR-LSZH

Flight info

Callsign SWR93
Flight time N/A
Altitude 33000
Route VUMEV UZ14 AMBET UN857 NEURA/N0491F350 UN857 ERETU DCT TURUP UA302 ANITI UR975 ARDAR UA854 SEROR/N0477F370 UA854 BRENA UA29 TRB DCT DAAG/N0468F380 DCT RISEP DCT OBLAD DCT SOSUR DCT MFB DCT EMMEF DCT BANKO DCT KORED N871 BERSU
Aircraft B77W/H-SDE1E2E3FGHIJ2J3J4J5M1RWXY/LB1D1

Departure

Time N/A
Airport São Paulo/Guarulhos–Governor André Franco Montoro International Airport (SBGR)

Arrival

Time 2026-05-05 09:01
Airport Zürich Airport (LSZH)
Time Latitude Longitude Altitude Speed Heading
2026-05-05 08:40 47.08550 8.21499 30163 ft 361 kts 161°
2026-05-05 08:40 47.06166 8.22481 29663 ft 358 kts 172°
2026-05-05 08:41 47.03709 8.22723 29166 ft 355 kts 182°
2026-05-05 08:41 47.01266 8.22235 28654 ft 353 kts 193°
2026-05-05 08:41 46.98966 8.21044 28150 ft 353 kts 204°
2026-05-05 08:41 46.96836 8.19269 27649 ft 352 kts 211°
2026-05-05 08:42 46.94882 8.17154 27156 ft 352 kts 217°
2026-05-05 08:42 46.93058 8.14821 26661 ft 351 kts 220°
2026-05-05 08:42 46.91311 8.12316 26167 ft 350 kts 222°
2026-05-05 08:42 46.89661 8.09761 25681 ft 348 kts 224°
2026-05-05 08:43 46.88052 8.07134 25204 ft 347 kts 225°
2026-05-05 08:43 46.86474 8.04462 24732 ft 346 kts 226°
2026-05-05 08:43 46.84955 8.01772 24268 ft 345 kts 231°
2026-05-05 08:43 46.83737 7.98764 23811 ft 348 kts 242°
2026-05-05 08:44 46.82949 7.95441 23353 ft 350 kts 253°
2026-05-05 08:44 46.82632 7.91934 22900 ft 353 kts 265°
2026-05-05 08:44 46.82811 7.88351 22451 ft 357 kts 277°
2026-05-05 08:44 46.83500 7.84853 22002 ft 360 kts 289°
2026-05-05 08:45 46.84657 7.81657 21529 ft 363 kts 301°
2026-05-05 08:45 46.86287 7.78789 20932 ft 370 kts 314°
2026-05-05 08:45 46.88334 7.76449 20311 ft 375 kts 327°
2026-05-05 08:45 46.90651 7.74820 19704 ft 379 kts 340°
2026-05-05 08:46 46.93216 7.73933 19018 ft 379 kts 354°
2026-05-05 08:46 46.95815 7.73896 18426 ft 371 kts
2026-05-05 08:46 46.98353 7.74452 17836 ft 364 kts 15°
2026-05-05 08:46 47.00679 7.75770 17254 ft 357 kts 28°
2026-05-05 08:47 47.02748 7.77663 16683 ft 351 kts 37°
2026-05-05 08:47 47.04758 7.79600 16086 ft 347 kts 24°
2026-05-05 08:47 47.06985 7.80914 15301 ft 352 kts 19°
2026-05-05 08:47 47.09303 7.82147 14538 ft 360 kts 19°
2026-05-05 08:48 47.11655 7.83409 14053 ft 359 kts 20°
2026-05-05 08:48 47.13955 7.84795 13681 ft 353 kts 21°
2026-05-05 08:48 47.16175 7.86161 13635 ft 339 kts 21°
2026-05-05 08:48 47.18290 7.87465 13605 ft 324 kts 22°
2026-05-05 08:49 47.20354 7.88738 13398 ft 317 kts 22°
2026-05-05 08:49 47.22383 7.89989 13003 ft 316 kts 22°
2026-05-05 08:49 47.24382 7.91224 12629 ft 314 kts 22°
2026-05-05 08:49 47.26377 7.92456 12288 ft 312 kts 22°
2026-05-05 08:50 47.28386 7.93698 11914 ft 311 kts 22°
2026-05-05 08:50 47.30359 7.94919 11570 ft 309 kts 22°
2026-05-05 08:50 47.32332 7.96140 11197 ft 308 kts 22°
2026-05-05 08:50 47.34295 7.97356 10881 ft 305 kts 22°
2026-05-05 08:51 47.36246 7.98566 10513 ft 304 kts 23°
2026-05-05 08:51 47.38196 7.99775 10203 ft 301 kts 23°
2026-05-05 08:51 47.40115 8.00967 9864 ft 300 kts 23°
2026-05-05 08:51 47.42026 8.02154 9522 ft 298 kts 24°
2026-05-05 08:52 47.43917 8.03329 9209 ft 296 kts 24°
2026-05-05 08:52 47.45819 8.04513 8873 ft 294 kts 24°
2026-05-05 08:52 47.47691 8.05678 8549 ft 292 kts 24°
2026-05-05 08:52 47.49548 8.06834 8268 ft 289 kts 24°
2026-05-05 08:53 47.51401 8.07989 7870 ft 290 kts 24°
2026-05-05 08:53 47.53232 8.09130 7664 ft 283 kts 24°
2026-05-05 08:53 47.55022 8.10247 7358 ft 282 kts 24°
2026-05-05 08:53 47.56824 8.11372 7033 ft 281 kts 24°
2026-05-05 08:54 47.58609 8.12486 6715 ft 279 kts 24°
2026-05-05 08:54 47.60395 8.13601 6404 ft 278 kts 24°
2026-05-05 08:54 47.62058 8.14984 6074 ft 273 kts 41°
2026-05-05 08:54 47.63417 8.16913 5987 ft 271 kts 47°
2026-05-05 08:55 47.64712 8.18937 5974 ft 271 kts 48°
2026-05-05 08:55 47.65999 8.21005 5961 ft 270 kts 52°
2026-05-05 08:55 47.66828 8.23422 5960 ft 268 kts 78°
2026-05-05 08:55 47.66850 8.26083 5950 ft 254 kts 103°
2026-05-05 08:56 47.66131 8.28442 5703 ft 250 kts 126°
2026-05-05 08:56 47.65015 8.30375 5442 ft 247 kts 133°
2026-05-05 08:56 47.63803 8.32188 5201 ft 244 kts 135°
2026-05-05 08:56 47.62587 8.33902 4979 ft 240 kts 136°
2026-05-05 08:57 47.61382 8.35558 4768 ft 236 kts 137°
2026-05-05 08:57 47.60187 8.37192 4563 ft 232 kts 137°
2026-05-05 08:57 47.58993 8.38832 4262 ft 233 kts 136°
2026-05-05 08:57 47.57815 8.40458 3970 ft 232 kts 136°
2026-05-05 08:58 47.56663 8.42070 3676 ft 222 kts 136°
2026-05-05 08:58 47.55607 8.43530 3402 ft 200 kts 136°
2026-05-05 08:58 47.54613 8.44888 3151 ft 185 kts 136°
2026-05-05 08:58 47.53700 8.46134 2919 ft 174 kts 136°
2026-05-05 08:59 47.52837 8.47311 2690 ft 165 kts 137°
2026-05-05 08:59 47.52034 8.48406 2465 ft 148 kts 137°
2026-05-05 08:59 47.51288 8.49423 2273 ft 146 kts 137°
2026-05-05 08:59 47.50550 8.50427 2070 ft 144 kts 138°
2026-05-05 09:00 47.49807 8.51431 1854 ft 144 kts 138°
2026-05-05 09:00 47.49069 8.52445 1655 ft 144 kts 139°
2026-05-05 09:00 47.48338 8.53438 1472 ft 142 kts 138°
2026-05-05 09:00 47.47633 8.54397 1390 ft 124 kts 137°
2026-05-05 09:01 47.47111 8.55107 1390 ft 80 kts 137°
2026-05-05 09:01 47.46817 8.55510 1391 ft 37 kts 136°
2026-05-05 09:01 47.46618 8.55667 1393 ft 30 kts 162°
2026-05-05 09:01 47.46456 8.55725 1394 ft 22 kts 166°
2026-05-05 09:02 47.46330 8.55829 1397 ft 18 kts 136°
2026-05-05 09:02 47.46294 8.55877 1398 ft 5 kts 138°
2026-05-05 09:02 47.46271 8.55897 1399 ft 2 kts 172°
2026-05-05 09:02 47.46249 8.55886 1399 ft 4 kts 218°
2026-05-05 09:03 47.46234 8.55819 1398 ft 8 kts 270°
2026-05-05 09:03 47.46240 8.55717 1396 ft 11 kts 275°
2026-05-05 09:03 47.46248 8.55594 1395 ft 12 kts 276°
2026-05-05 09:03 47.46257 8.55465 1393 ft 13 kts 274°
2026-05-05 09:04 47.46267 8.55330 1392 ft 13 kts 276°
2026-05-05 09:04 47.46274 8.55225 1390 ft 6 kts 275°
2026-05-05 09:04 47.46254 8.55189 1390 ft 4 kts 178°
2026-05-05 09:04 47.46216 8.55190 1390 ft 5 kts 183°
2026-05-05 09:05 47.46200 8.55189 1390 ft 0 kts 184°